Location: Neuvy Saint Sepulchre
(46.5953°N, 1.8122°E)
Time: 17:47:41
(UTC+01:00)

ISS - Pass Details

Date: 24 November 2021
Orbit: 417 x 422 km, 51.6° (Epoch: 06 December)

Event Time Altitude Azimuth Distance (km) Brightness Sun altitude
Rises 19:21:56 0° 267° (W) 2,374 1.6 -22.0°
Reaches altitude 10° 19:24:06 10° 274° (W) 1,510 0.1 -22.4°
Enters shadow 19:26:46 37° 318° (NW) 673 -2.5 -22.8°
